Voltar ao catálogo

DELTA 1 DEB

AtivoSSO
NORAD 7161·DEBRIS·🇺🇸 United States

Lançado Nov 6, 1973 de Vandenberg Space Force Base

Loading…

Próximas Passagens (próximas 24 horas)

TLE

AtualizadoSource: Space-Track

Época: Sep 14, 2026, 14:15 UTC

1 07161U 73086DZ  26257.59395461 -.00000024  00000-0  16332-3 0  9998
2 07161 102.2030 287.0954 0014480 318.2139 196.2356 12.41260559393882

Acompanhe DELTA 1 DEB em tempo real com AllMySat

Download on the App Store